User: anonymous   Login
Location: Saint-Palais-sur-Mer
(45.6429°N, 1.0859°W)
Time: 19:02:01
(UTC+02:00)
Language:

TIGRISAT - Orbit

View from above orbital plane
View from above orbital plane
View from above satellite
View from above satellite

Ground track
Ground track

The orbit data is extracted from the following two-line orbital elements,

1 40043U 14033AK  24196.20051764  .00004098  00000-0  54649-3 0  9991
2 40043  97.6981 357.7684 0054489 214.3831 145.3851 14.79104766541759
Epoch (UTC): 14 July 2024 04:48:44
Eccentricity: 0.0054489
inclination: 97.6981°
perigee height: 594 km
apogee height: 670 km
right ascension of ascending node: 357.7684°
argument of perigee: 214.3831°
revolutions per day: 14.79104766
mean anomaly at epoch: 145.3851°
orbit number at epoch: 54175

The dashed part of the orbit path shows where the satellite is in the earth's shadow,  

DLR